Weather History for Ann Arbor, MI

Change the Weather History Date:

Saturday, January 25, 2014

  Actual Average Record
Temperature  
Mean Temperature 14 °F -  
Max Temperature 26 °F 27 °F 44 °F (2002)
Min Temperature 0 °F 9 °F -14 °F (2004)
Degree Days  
Heating Degree Days 52    
Moisture  
Dew Point 13 °F    
Average Humidity 76    
Maximum Humidity 89    
Minimum Humidity 49    
Precipitation  
Precipitation 0.00 in - - ()
Sea Level Pressure  
Sea Level Pressure 29.42 in    
Wind  
Wind Speed 16 mph (West)    
Max Wind Speed 23 mph    
Max Gust Speed 32 mph    
Visibility 3 miles    
Events Fog , Snow    
Averages and records for this station are not official NWS values.
T = Trace of Precipitation, MM = Missing Value Source: NWS Daily Summary

Daily Weather History Graph

Daily Weather History Graph

Search for Another Location

Airport:

Trip Planner

Search our weather history database for the weather conditions in past years. The results will help you decide how hot, cold, wet, or windy it might be!

Date:

Astronomy

Jan. 25, 2014 Rise Set
Actual Time 7:54 AM EST 5:40 PM EST
Civil Twilight 7:24 AM EST 6:10 PM EST
Nautical Twilight 6:50 AM EST 6:44 PM EST
Astronomical Twilight 6:17 AM EST 7:17 PM EST
Moon 2:25 AM EST (1/25) 12:40 PM EST (1/25)
Length of Visible Light 10h 46m
Length of Day
9h 45m
Waning Crescent, 34% of the Moon is Illuminated
Jan 25
Waning Crescent
Jan 30
New
Feb 6
First Quarter
Feb 14
Full
Feb 22
Last Quarter

Hourly Weather History & Observations

Time (EST) Temp. Windchill Dew Point Humidity Pressure Visibility Wind Dir Wind Speed Gust Speed Precip Events Conditions
12:30 AM 17.6 °F 2.2 °F 12.2 °F 79% 29.50 in 2.5 mi SW 17.3 mph 26.5 mph 0.00 in Snow Light Snow
12:43 AM 17.6 °F 2.2 °F 12.2 °F 79% 29.49 in 1.5 mi SW 17.3 mph 26.5 mph 0.00 in Snow Light Snow
12:53 AM 18.0 °F 3.1 °F 12.9 °F 81% 29.53 in 1.5 mi SW 16.1 mph 25.3 mph 0.00 in Snow Light Snow
1:31 AM 17.6 °F 2.7 °F 14.0 °F 86% 29.44 in 2.0 mi SW 16.1 mph 25.3 mph 0.00 in Snow Light Snow
1:53 AM 19.0 °F 3.2 °F 14.0 °F 81% 29.47 in 2.0 mi SW 19.6 mph 27.6 mph 0.00 in Snow Light Snow
2:15 AM 19.4 °F 5.0 °F 14.0 °F 80% 29.41 in 2.5 mi SW 16.1 mph 25.3 mph 0.00 in Snow Light Snow
2:25 AM 19.4 °F 4.1 °F 14.0 °F 80% 29.40 in 3.0 mi SW 18.4 mph 25.3 mph 0.00 in Snow Light Snow
2:43 AM 19.4 °F 4.1 °F 15.8 °F 86% 29.39 in 2.5 mi SW 18.4 mph 25.3 mph 0.00 in Snow Light Snow
2:53 AM 19.9 °F 4.8 °F 15.1 °F 81% 29.44 in 2.5 mi SW 18.4 mph 26.5 mph 0.00 in Snow Light Snow
3:23 AM 19.4 °F 4.5 °F 15.8 °F 86% 29.38 in 3.0 mi SW 17.3 mph 23.0 mph 0.00 in Snow Light Snow
3:36 AM 19.4 °F 5.0 °F 15.8 °F 86% 29.37 in 4.0 mi SW 16.1 mph - 0.00 in Snow Light Snow
3:53 AM 21.0 °F 7.1 °F 16.0 °F 81% 29.41 in 5.0 mi SW 16.1 mph 27.6 mph 0.00 in Snow Light Snow
4:35 AM 21.2 °F 6.8 °F 15.8 °F 80% 29.34 in 2.5 mi SW 17.3 mph 24.2 mph 0.00 in Snow Light Snow
4:53 AM 21.0 °F 6.6 °F 17.1 °F 85% 29.37 in 3.0 mi SW 17.3 mph 23.0 mph 0.00 in Snow Light Snow
5:05 AM 21.2 °F 7.3 °F 17.6 °F 86% 29.33 in 1.8 mi SW 16.1 mph - 0.00 in Snow Light Snow
5:18 AM 21.2 °F 7.8 °F 17.6 °F 86% 29.32 in 2.5 mi SW 15.0 mph 24.2 mph 0.00 in Snow Light Snow
5:29 AM 21.2 °F 8.3 °F 17.6 °F 86% 29.32 in 3.0 mi SW 13.8 mph - 0.00 in Snow Light Snow
5:53 AM 21.9 °F 8.2 °F 17.1 °F 82% 29.35 in 2.5 mi SW 16.1 mph 26.5 mph 0.00 in Snow Light Snow
6:21 AM 21.2 °F 6.8 °F 17.6 °F 86% 29.30 in 2.0 mi WSW 17.3 mph 23.0 mph 0.00 in Snow Light Snow
6:30 AM 21.2 °F 8.3 °F 17.6 °F 86% 29.30 in 1.8 mi SW 13.8 mph 23.0 mph 0.00 in Snow Light Snow
6:53 AM 21.9 °F 7.8 °F 19.0 °F 89% 29.34 in 2.0 mi SW 17.3 mph - 0.00 in Snow Light Snow
7:11 AM 23.0 °F 10.1 °F 19.4 °F 86% 29.30 in 2.0 mi SW 15.0 mph - 0.00 in Snow Light Snow
7:19 AM 23.0 °F 10.1 °F 19.4 °F 86% 29.30 in 2.5 mi WSW 15.0 mph - 0.00 in Snow Light Snow
7:53 AM 23.0 °F 11.1 °F 19.0 °F 85% 29.34 in 3.0 mi SW 12.7 mph - 0.00 in Snow Light Snow
8:02 AM 23.0 °F 11.7 °F 19.4 °F 86% 29.30 in 2.0 mi WSW 11.5 mph - 0.00 in Snow Light Snow
8:09 AM 23.0 °F 11.7 °F 19.4 °F 86% 29.30 in 3.0 mi WSW 11.5 mph - 0.00 in Snow Light Snow
8:19 AM 23.0 °F 11.7 °F 19.4 °F 86% 29.30 in 2.5 mi WSW 11.5 mph - 0.00 in Snow Light Snow
8:22 AM 23.0 °F 12.4 °F 19.4 °F 86% 29.30 in 1.8 mi WSW 10.4 mph - 0.00 in Snow Light Snow
8:41 AM 23.0 °F 12.4 °F 19.4 °F 86% 29.30 in 2.0 mi WSW 10.4 mph - 0.00 in Snow Light Snow
8:53 AM 23.0 °F 11.7 °F 19.9 °F 88% 29.34 in 6.0 mi SW 11.5 mph - 0.00 in Snow Light Snow
9:53 AM 25.0 °F 14.8 °F 19.9 °F 81% 29.33 in 10.0 mi WSW 10.4 mph - 0.00 in   Mostly Cloudy
10:17 AM 26.6 °F 16.2 °F 21.2 °F 80% 29.29 in 2.5 mi WSW 11.5 mph - 0.00 in Snow Light Snow
10:22 AM 26.6 °F 16.8 °F 21.2 °F 80% 29.29 in 1.2 mi WSW 10.4 mph - 0.00 in Snow Light Snow
10:28 AM 26.6 °F 15.2 °F 21.2 °F 80% 29.30 in 0.5 mi West 13.8 mph - 0.00 in Fog , Snow Snow
10:41 AM 24.8 °F 12.9 °F 21.2 °F 86% 29.30 in 0.8 mi WNW 13.8 mph 26.5 mph 0.00 in Snow Light Snow
10:44 AM 24.8 °F 14.6 °F 21.2 °F 86% 29.30 in 1.5 mi WNW 10.4 mph 23.0 mph 0.00 in Snow Light Snow
10:50 AM 26.6 °F 15.7 °F 19.4 °F 74% 29.30 in 3.0 mi WNW 12.7 mph - 0.00 in Snow Light Snow
10:53 AM 26.1 °F 14.5 °F 19.0 °F 75% 29.34 in 4.0 mi WNW 13.8 mph - 0.00 in Snow Light Snow
11:03 AM 26.6 °F 14.7 °F 19.4 °F 74% 29.32 in 1.5 mi NW 15.0 mph - 0.00 in Snow Light Snow
11:05 AM 24.8 °F 11.9 °F 19.4 °F 80% 29.32 in 0.8 mi North 16.1 mph 21.9 mph 0.00 in Snow Light Snow
11:16 AM 23.0 °F 12.4 °F 17.6 °F 80% 29.32 in 0.5 mi North 10.4 mph 20.7 mph 0.00 in Snow Snow
11:24 AM 24.8 °F 14.0 °F 17.6 °F 74% 29.33 in 1.5 mi NNW 11.5 mph - 0.00 in Snow Light Snow
11:37 AM 23.0 °F 10.1 °F 17.6 °F 80% 29.33 in 1.2 mi NNW 15.0 mph - 0.00 in Snow Light Snow
11:53 AM 23.0 °F 10.6 °F 17.1 °F 78% 29.37 in 1.8 mi NNW 13.8 mph - 0.00 in Snow Light Snow
11:56 AM 24.8 °F 12.4 °F 15.8 °F 69% 29.34 in 3.0 mi NNW 15.0 mph 23.0 mph 0.00 in Snow Light Snow
12:10 PM 23.0 °F 9.2 °F 15.8 °F 74% 29.35 in 2.5 mi NNW 17.3 mph 24.2 mph 0.00 in Snow Light Snow
12:19 PM 21.2 °F 7.3 °F 15.8 °F 80% 29.35 in 2.5 mi NNW 16.1 mph 24.2 mph 0.00 in Snow Light Snow
12:28 PM 21.2 °F 6.0 °F 15.8 °F 80% 29.36 in 1.2 mi NNW 19.6 mph 27.6 mph 0.00 in Snow Light Snow
12:51 PM 21.2 °F 5.6 °F 12.2 °F 68% 29.36 in 1.8 mi NW 20.7 mph 28.8 mph 0.00 in Snow Light Snow
12:53 PM 21.0 °F 7.1 °F 12.9 °F 71% 29.40 in 1.8 mi NW 16.1 mph 28.8 mph 0.00 in Snow Light Snow
12:59 PM 21.2 °F 6.8 °F 12.2 °F 68% 29.37 in 3.0 mi NNW 17.3 mph 28.8 mph 0.00 in Snow Light Snow
1:06 PM 21.2 °F 5.6 °F 10.4 °F 63% 29.38 in 2.5 mi NW 20.7 mph 26.5 mph 0.00 in Snow Light Snow
1:53 PM 21.9 °F 8.2 °F 8.1 °F 55% 29.43 in 2.5 mi WNW 16.1 mph 23.0 mph 0.00 in   Haze
1:56 PM 21.2 °F 8.9 °F 8.6 °F 58% 29.40 in 8.0 mi NNW 12.7 mph 23.0 mph N/A   Overcast
2:53 PM 19.0 °F 2.0 °F 7.0 °F 59% 29.47 in 3.0 mi NNW 23.0 mph 32.2 mph 0.00 in   Haze
2:55 PM 17.6 °F 0.5 °F 8.6 °F 68% 29.44 in 1.5 mi NNW 21.9 mph 32.2 mph 0.00 in Snow Light Snow
2:58 PM 17.6 °F 0.9 °F 10.4 °F 73% 29.44 in 0.5 mi NNW 20.7 mph 32.2 mph 0.00 in Snow Snow
3:12 PM 17.6 °F 3.7 °F 8.6 °F 68% 29.45 in 1.5 mi NW 13.8 mph 27.6 mph 0.00 in Snow Light Snow
3:15 PM 17.6 °F 3.2 °F 8.6 °F 68% 29.46 in 2.5 mi NW 15.0 mph 27.6 mph 0.00 in Snow Light Snow
3:22 PM 17.6 °F 2.7 °F 8.6 °F 68% 29.46 in 10.0 mi WNW 16.1 mph 21.9 mph 0.00 in   Overcast
3:53 PM 18.0 °F 1.7 °F 6.1 °F 60% 29.52 in 10.0 mi NW 19.6 mph 25.3 mph 0.00 in   Overcast
4:23 PM 17.6 °F 0.9 °F 6.8 °F 63% 29.51 in 1.5 mi WNW 20.7 mph 29.9 mph 0.00 in Snow Light Snow
4:29 PM 15.8 °F -0.2 °F 8.6 °F 73% 29.52 in 1.0 mi WNW 17.3 mph 29.9 mph 0.00 in Snow Light Snow
4:48 PM 15.8 °F 2.7 °F 8.6 °F 73% 29.53 in 1.0 mi NW 11.5 mph - 0.00 in Snow Light Snow
4:53 PM 15.1 °F 2.5 °F 7.0 °F 70% 29.57 in 5.0 mi NW 10.4 mph - 0.00 in Snow Light Snow
5:00 PM 15.8 °F 0.3 °F 6.8 °F 68% 29.54 in 4.0 mi NW 16.1 mph 29.9 mph 0.00 in Snow Light Snow
5:02 PM 15.8 °F -2.3 °F 6.8 °F 68% 29.54 in 1.8 mi NW 23.0 mph 29.9 mph 0.00 in Snow Light Snow
5:06 PM 14.0 °F -2.0 °F 5.0 °F 67% 29.54 in 1.2 mi WNW 16.1 mph 29.9 mph 0.00 in Snow Light Snow
5:13 PM 14.0 °F -3.9 °F 3.2 °F 62% 29.55 in 2.0 mi WNW 20.7 mph 29.9 mph 0.00 in   Haze
5:25 PM 14.0 °F -3.0 °F 1.4 °F 57% 29.56 in 5.0 mi WNW 18.4 mph 26.5 mph 0.00 in   Haze
5:44 PM 14.0 °F -3.4 °F 1.4 °F 57% 29.57 in 2.0 mi NW 19.6 mph 31.1 mph 0.00 in Snow Light Snow
5:53 PM 12.9 °F -2.8 °F 1.9 °F 62% 29.63 in 5.0 mi WNW 15.0 mph 26.5 mph 0.00 in Snow Light Snow
6:53 PM 10.9 °F -2.6 °F -5.1 °F 49% 29.68 in 10.0 mi WNW 10.4 mph - 0.00 in   Scattered Clouds
7:53 PM 10.0 °F -3.7 °F -2.9 °F 56% 29.72 in 10.0 mi WNW 10.4 mph - N/A   Scattered Clouds
8:53 PM 9.0 °F -2.2 °F -0.9 °F 64% 29.75 in 10.0 mi NW 6.9 mph - N/A   Mostly Cloudy
9:53 PM 7.0 °F -3.3 °F -0.9 °F 70% 29.78 in 10.0 mi WNW 5.8 mph - N/A   Mostly Cloudy
10:53 PM 1.9 °F -7.6 °F -2.9 °F 80% 29.80 in 10.0 mi West 4.6 mph - N/A   Mostly Cloudy
11:53 PM -0.0 °F - -5.1 °F 79% 29.81 in 10.0 mi Calm Calm - N/A   Mostly Cloudy